This demonstration page uses our WeatherBlox Daily Observations layout. Learn more.

Left ArrowRight Arrow

39.12711, -84.51439

Hourly Observations for October 14, 2021

Temp ( °F °C ) Dew Point ( °F °C ) Humidity (%) Winds ( mph kmh ) Pressure ( in mb ) Visibility ( mi km ) Precip ( " mm )
12:00 am 00:00 Mostly Cloudy with Fog 63 17.2 63 17.2 100 100 Calm 29.98 1015 0 0 0.00 0.00
12:07 am 00:07 Mostly Cloudy with Mist and Fog 64 17.8 64 17.8 100 100 Calm 29.98 1015 1 2 0.00 0.00
12:19 am 00:19 Mostly Cloudy with Fog 65 18.3 65 18.3 100 100 Calm 29.98 1015 0 0 0.00 0.00
12:29 am 00:29 Mostly Cloudy with Mist and Fog 66 18.9 66 18.9 100 100 WSW 3 6 29.98 1015 1 2 0.00 0.00
12:31 am 00:31 Clear with Mist and Fog 66 18.9 66 18.9 100 100 WSW 3 6 29.98 1015 3 5 0.00 0.00
12:53 am 00:53 Clear with Mist and Fog 65 18.3 65 18.3 100 100 Calm 29.97 1015 6 10 0.00 0.00
1:19 am 01:19 Partly Cloudy 67 19.4 67 19.4 100 100 W 3 6 29.97 1015 8 13 0.00 0.00
1:29 am 01:29 Mostly Cloudy 67 19.4 67 19.4 100 100 Calm 29.97 1015 8 13 0.00 0.00
1:53 am 01:53 Cloudy 68 20 67 19.4 96 96 Calm 29.97 1015 8 13 0.00 0.00
2:32 am 02:32 Partly Cloudy with Mist and Fog 66 18.9 66 18.9 100 100 Calm 29.98 1015 5 8 0.00 0.00
2:53 am 02:53 Partly Cloudy with Mist and Fog 65 18.3 65 18.3 100 100 Calm 29.98 1015 6 10 0.00 0.00
3:34 am 03:34 Clear with Mist and Fog 65 18.3 65 18.3 100 100 Calm 29.98 1015 2 3 0.00 0.00
3:38 am 03:38 Mostly Cloudy with Mist and Fog 64 17.8 64 17.8 100 100 Calm 29.98 1015 1 1 0.00 0.00
3:50 am 03:50 Mostly Cloudy with Fog 64 18 64 18 100 100 Calm 29.98 1015 0 0 0.00 0.00
3:53 am 03:53 Mostly Cloudy with Fog 65 18.3 65 18.3 100 100 Calm 29.98 1015 0 0 0.00 0.00
4:17 am 04:17 Cloudy with Mist and Fog 64 17.8 64 17.8 100 100 Calm 29.98 1015 1 2 0.00 0.00
4:32 am 04:32 Mostly Cloudy with Fog 64 17.8 64 17.8 100 100 Calm 29.98 1015 1 1 0.00 0.00
4:53 am 04:53 Partly Cloudy with Mist and Fog 64 17.8 64 17.8 100 100 Calm 29.98 1015 2 3 0.00 0.00
5:05 am 05:05 Mostly Clear with Mist and Fog 65 18.3 65 18.3 100 100 Calm 29.99 1016 3 5 0.00 0.00
5:15 am 05:15 Clear with Mist and Fog 65 18.3 65 18.3 100 100 Calm 29.99 1016 2 3 0.00 0.00
5:19 am 05:19 Mostly Cloudy with Mist and Fog 65 18.3 65 18.3 100 100 Calm 29.99 1016 1 2 0.00 0.00
5:26 am 05:26 Mostly Cloudy with Fog 65 18.3 65 18.3 100 100 Calm 29.99 1016 1 1 0.00 0.00
5:53 am 05:53 Cloudy with Mist and Fog 63 17.2 63 17.2 100 100 Calm 30.00 1016 1 2 0.00 0.00
5:58 am 05:58 Cloudy with Mist and Fog 64 17.8 64 17.8 100 100 Calm 30.00 1016 3 5 0.00 0.00
6:03 am 06:03 Cloudy with Mist and Fog 64 17.8 64 17.8 100 100 Calm 30.00 1016 2 2 0.00 0.00
6:11 am 06:11 Cloudy with Fog 64 17.8 64 17.8 100 100 Calm 30.00 1016 1 1 0.00 0.00
6:25 am 06:25 Mostly Cloudy with Fog 64 17.8 64 17.8 100 100 Calm 30.00 1016 1 1 0.00 0.00
6:42 am 06:42 Mostly Cloudy with Fog 64 17.8 64 17.8 100 100 Calm 30.00 1016 0 0 0.00 0.00
6:53 am 06:53 Mostly Cloudy with Fog 64 17.8 64 17.8 100 100 Calm 30.01 1016 0 0 0.00 0.00
7:13 am 07:13 Mostly Cloudy with Mist and Fog 63 17.2 63 17.2 100 100 Calm 30.01 1016 2 3 0.00 0.00
7:35 am 07:35 Mostly Cloudy with Patchy Fog 64 17.8 64 17.8 100 100 Calm 30.01 1016 4 6 0.00 0.00
7:53 am 07:53 Mostly Cloudy with Patchy Fog 65 18.3 65 18.3 100 100 Calm 30.01 1016 4 6 0.00 0.00
8:53 am 08:53 Mostly Cloudy with Mist and Fog 68 20 68 20 100 100 Calm 30.02 1017 5 8 0.00 0.00
9:53 am 09:53 Sunny 72 22.2 70 21.1 94 94 SSW 7 11 30.03 1017 10 16 0.00 0.00
10:53 am 10:53 Sunny 75 23.9 70 21.1 84 84 S 7 11 30.01 1016 10 16 0.00 0.00
11:53 am 11:53 Partly Cloudy 78 25.6 71 21.7 79 79 S 8 13 30.00 1016 10 16 0.00 0.00
12:53 pm 12:53 Partly Cloudy 80 26.7 71 21.7 74 74 SW 10 17 29.99 1016 10 16 0.00 0.00
1:53 pm 13:53 Mostly Cloudy 79 26.1 70 21.1 74 74 SSW 9 15 29.97 1015 10 16 0.00 0.00
2:53 pm 14:53 Partly Cloudy 80 26.7 70 21.1 71 71 SSW 9 15 29.94 1014 10 16 0.00 0.00
3:53 pm 15:53 Partly Cloudy 79 26.1 68 20 69 69 S 8 13 29.93 1014 10 16 0.00 0.00
4:53 pm 16:53 Partly Cloudy 80 26.7 69 20.6 69 69 SSW 9 15 29.91 1013 10 16 0.00 0.00
5:53 pm 17:53 Sunny 79 26.1 68 20 69 69 S 6 9 29.91 1013 10 16 0.00 0.00
6:53 pm 18:53 Mostly Sunny 75 23.9 67 19.4 76 76 SSW 3 6 29.91 1013 10 16 0.00 0.00
7:53 pm 19:53 Clear 71 21.7 68 20 90 90 Calm 29.92 1013 10 16 0.00 0.00
8:53 pm 20:53 Clear 70 21.1 68 20 93 93 Calm 29.93 1013 10 16 0.00 0.00
9:53 pm 21:53 Clear 67 19.4 67 19.4 100 100 Calm 29.92 1013 10 16 0.00 0.00
10:53 pm 22:53 Clear 68 20 67 19.4 96 96 Calm 29.93 1013 10 16 0.00 0.00
11:53 pm 23:53 Clear 67 19.4 67 19.4 100 100 Calm 29.92 1013 9 14 0.00 0.00

Powered by AerisWeather